Weather History for KEST - November, 2011

Change the Weather History Date:

Wednesday, November 30, 2011

  Actual Average Record
Temperature  
Mean Temperature 30 °F 25 °F  
Max Temperature 49 °F 34 °F 58 °F (1962)
Min Temperature 11 °F 16 °F -8 °F (1964)
Degree Days  
Heating Degree Days 35 40  
Month to date heating degree days 859 970  
Since 1 July heating degree days 1483 1719  
Cooling Degree Days 0 0  
Month to date cooling degree days 0 0  
Year to date cooling degree days 767 593  
Moisture  
Dew Point 14 °F    
Average Humidity 48    
Maximum Humidity 64    
Minimum Humidity 31    
Precipitation  
Precipitation 0.00 in 0.05 in 0.13 in (1975)
Month to date precipitation 0.05 1.67  
Year to date precipitation 19.02  
Sea Level Pressure  
Sea Level Pressure 29.99 in    
Wind  
Wind Speed 9 mph (SSW)    
Max Wind Speed 23 mph    
Max Gust Speed 29 mph    
Visibility 10 miles    
Events      
T = Trace of Precipitation, MM = Missing Value Source: NWS Daily Summary

Daily Weather History Graph

Daily Weather History Graph

Search for Another Location

Airport or City:

Trip Planner

Search our weather history database for the weather conditions in past years. The results will help you decide how hot, cold, wet, or windy it might be!

Date:

Astronomy

Nov. 30, 2011 Rise Set
Actual Time 7:30 AM CST 4:44 PM CST
Civil Twilight 6:58 AM CST 5:16 PM CST
Nautical Twilight 6:22 AM CST 5:52 PM CST
Astronomical Twilight 5:48 AM CST 6:26 PM CST
Moon 11:43 AM CST (11/30) 10:48 PM CST (11/30)
Length of Visible Light 10h 18m
Length of Day
9h 14m
Waxing Crescent, 34% of the Moon is Illuminated
Nov 30
Waxing Crescent
Dec 2
First Quarter
Dec 10
Full
Dec 17
Last Quarter
Dec 24
New

Hourly Weather History & Observations

Time (CST) Temp. Windchill Dew Point Humidity Pressure Visibility Wind Dir Wind Speed Gust Speed Precip Events Conditions
12:52 AM 14.0 °F 3.9 °F 3.0 °F 62% 30.14 in 10.0 mi South 6.9 mph - N/A   Unknown
1:52 AM 18.0 °F 6.9 °F 5.0 °F 57% 30.11 in 10.0 mi SSW 9.2 mph - N/A   Unknown
2:52 AM 19.0 °F 9.0 °F 6.1 °F 57% 30.09 in 10.0 mi SSW 8.1 mph - N/A   Unknown
3:52 AM 21.9 °F 14.5 °F 8.1 °F 55% 30.06 in 10.0 mi SSW 5.8 mph - N/A   Unknown
4:52 AM 19.0 °F 11.1 °F 6.1 °F 57% 30.06 in 10.0 mi South 5.8 mph - N/A   Unknown
5:52 AM 19.9 °F 12.1 °F 6.1 °F 55% 30.04 in 10.0 mi SSW 5.8 mph - N/A   Unknown
6:52 AM 30.0 °F 20.0 °F 9.0 °F 41% 30.01 in 10.0 mi SSW 12.7 mph - N/A   Unknown
7:52 AM 30.0 °F 19.5 °F 9.0 °F 41% 30.00 in 10.0 mi SSW 13.8 mph - N/A   Unknown
8:52 AM 33.1 °F 23.9 °F 12.0 °F 42% 30.00 in 10.0 mi SSW 12.7 mph - N/A   Unknown
10:52 AM 42.1 °F 33.9 °F 15.1 °F 34% 29.97 in 10.0 mi SSW 17.3 mph 24.2 mph N/A   Unknown
11:52 AM 46.9 °F - 18.0 °F 32% 29.93 in 10.0 mi SSW 18.4 mph 26.5 mph N/A   Unknown
12:52 PM 48.0 °F - 21.0 °F 34% 29.90 in 10.0 mi SSW 16.1 mph 26.5 mph N/A   Clear
1:52 PM 48.9 °F - 21.0 °F 33% 29.88 in 10.0 mi SSW 17.3 mph 27.6 mph N/A   Clear
2:52 PM 48.0 °F - 19.9 °F 33% 29.88 in 10.0 mi SSW 15.0 mph - N/A   Clear
3:52 PM 46.9 °F - 21.0 °F 36% 29.88 in 10.0 mi SSW 10.4 mph 17.3 mph N/A   Scattered Clouds
4:52 PM 44.1 °F - 19.9 °F 38% 29.91 in 10.0 mi Calm Calm - N/A   Clear
5:52 PM 39.9 °F 37.8 °F 19.0 °F 43% 29.94 in 10.0 mi South 3.5 mph - N/A   Clear
6:52 PM 37.9 °F 34.4 °F 17.1 °F 43% 29.96 in 10.0 mi SSE 4.6 mph - N/A   Clear
7:52 PM 35.1 °F - 17.1 °F 48% 29.99 in 10.0 mi Calm Calm - N/A   Clear
8:52 PM 33.1 °F - 16.0 °F 50% 30.00 in 10.0 mi Calm Calm - N/A   Clear
9:52 PM 30.0 °F 25.2 °F 16.0 °F 56% 30.02 in 10.0 mi North 4.6 mph - N/A   Clear
10:52 PM 30.9 °F 24.3 °F 18.0 °F 59% 30.04 in 10.0 mi North 6.9 mph - N/A   Clear
11:52 PM 30.9 °F 26.2 °F 18.0 °F 59% 30.07 in 10.0 mi North 4.6 mph - N/A   Clear